{"data":{"norad_id":56833,"intl_designator":"2023-079L","name":"STARLINK-30131","alt_names":[],"object_type":"PAYLOAD","status":"ACTIVE","operator":null,"country":"US","launch_date":"2023-06-04","launch_site_code":"AFETR","launch_vehicle":null,"mission":null,"orbit_class":"UNKNOWN","rcs_meters":null,"size_class":null,"mass_kg":null,"dimensions":null,"purposes":["comms"],"wikipedia_slug":null,"has_3d_model":false,"image_url":null,"decayed_at":null,"tle_current":{"epoch":"2026-09-20T17:20:39.276384Z","epoch_age_seconds":98359,"freshness":"FRESH","line1":"1 56833U 23079L   26263.72267681  .00001829  00000+0  79757-4 0  9992","line2":"2 56833  43.0086  65.5948 0003188 271.1076  88.9410 15.25909303182940","mean_motion":15.25909303,"eccentricity":0.0003188,"inclination_deg":43.0086,"raan_deg":65.5948,"arg_perigee_deg":271.1076,"mean_anomaly_deg":88.941,"bstar":7.9757e-5,"rev_number":18294,"period_min":94.369960073571,"perigee_km":485.86738535965,"apogee_km":490.24527022545,"semimajor_km":6866.1933277926,"source":"CELESTRAK","updated_at":"2026-09-21T09:00:33.516214Z"}}}